GW1174 Weather Reports


time (UTC)temp
F
wind
direction
speed
knots
gust
knots
rain 1hr
in
rain 24hr
in
rain mn
in
humidity
%
barometer
mb
20260510164517 68 0.0 1.7 0.00 0.00 0.00 47 1006.9
20260510163516 69 0.0 3.5 0.00 0.00 0.00 48 1007.1
20260510162517 69 90 0.9 5.2 0.00 0.00 0.00 47 1007.1
20260510161516 70 0.0 2.6 0.00 0.00 0.00 46 1007.4
20260510160517 71 113 0.9 3.5 0.00 0.00 0.00 44 1007.5
20260510155517 71 0.0 3.5 0.00 0.00 0.00 43 1007.8
20260510154516 72 0.0 2.6 0.00 0.00 0.00 42 1007.9
20260510153536 71 0.0 3.5 0.00 0.00 0.00 46 1007.9
20260510152516 72 0.0 2.6 0.00 0.00 0.00 46 1008.2
20260510151516 72 23 0.9 4.3 0.00 0.00 0.00 45 1008.2
20260510150517 73 23 0.9 3.5 0.00 0.00 0.00 42 1008.3
20260510145536 73 158 0.9 1.7 0.00 0.00 0.00 43 1008.6
20260510144516 73 270 0.9 5.2 0.00 0.00 0.00 48 1008.7
20260510143517 72 135 0.9 2.6 0.00 0.00 0.00 44 1008.9
20260510142516 72 0.0 2.6 0.00 0.00 0.00 43 1008.9
20260510141516 73 113 0.9 3.5 0.00 0.00 0.00 42 1009.0
20260510140516 74 0 0.9 2.6 0.00 0.00 0.00 47 1009.3
20260510135516 73 113 0.9 5.2 0.00 0.00 0.00 45 1009.3
20260510134516 74 90 0.9 3.5 0.00 0.00 0.00 45 1009.6
20260510133516 73 158 0.9 3.5 0.00 0.00 0.00 45 1009.8
20260510132556 73 158 0.9 2.6 0.00 0.00 0.00 46 1009.7
20260510131516 71 90 1.7 3.5 0.00 0.00 0.00 43 1009.8
20260510130516 71 90 0.9 3.5 0.00 0.00 0.00 45 1010.0
20260510125516 72 158 1.7 6.1 0.00 0.00 0.00 45 1010.2
20260510124516 71 113 1.7 5.2 0.00 0.00 0.00 43 1010.2
20260510123516 72 158 1.7 5.2 0.00 0.00 0.00 45 1010.4
20260510122516 70 90 0.9 3.5 0.00 0.00 0.00 42 1010.5
20260510121516 71 135 1.7 5.2 0.00 0.00 0.00 42 1010.6
20260510120516 70 248 1.7 3.5 0.00 0.00 0.00 48 1010.6
20260510115516 71 0 0.9 4.3 0.00 0.00 0.00 46 1010.8
20260510114516 70 158 3.5 7.8 0.00 0.00 0.00 47 1010.9
20260510113516 68 135 1.7 7.0 0.00 0.00 0.00 48 1010.9
20260510112516 71 158 0.9 7.8 0.00 0.00 0.00 47 1011.3
20260510111516 70 158 2.6 5.2 0.00 0.00 0.00 48 1011.4
20260510110516 70 158 4.3 13.0 0.00 0.00 0.00 47 1011.6
20260510105516 69 158 0.9 4.3 0.00 0.00 0.00 54 1011.6
20260510104516 67 113 0.9 4.3 0.00 0.00 0.00 51 1011.6
20260510103516 68 158 3.5 7.8 0.00 0.00 0.00 54 1011.6
20260510102516 67 135 1.7 5.2 0.00 0.00 0.00 56 1011.7
20260510101516 68 90 3.5 9.6 0.00 0.00 0.00 52 1011.8
20260510100516 68 90 1.7 6.1 0.00 0.00 0.00 53 1012.0
20260510095515 69 90 3.5 7.0 0.00 0.00 0.00 53 1012.2
20260510094516 69 158 3.5 7.8 0.00 0.00 0.00 55 1012.1
20260510093515 68 158 4.3 7.8 0.00 0.00 0.00 55 1012.4
20260510092515 69 135 1.7 3.5 0.00 0.00 0.00 55 1012.5
20260510091537 68 158 1.7 4.3 0.00 0.00 0.00 60 1012.5
20260510090537 67 180 0.9 2.6 0.00 0.00 0.00 62 1012.6
20260510085517 67 158 1.7 5.2 0.00 0.00 0.00 63 1012.6
20260510084518 66 225 1.7 3.5 0.00 0.00 0.00 65 1012.7
20260510083537 64 0.0 2.6 0.00 0.00 0.00 67 1012.8
20260510082538 64 23 1.7 4.3 0.00 0.00 0.00 65 1012.8
20260510081517 64 45 0.9 2.6 0.00 0.00 0.00 68 1013.0
20260510080518 63 0.0 3.5 0.00 0.00 0.00 68 1013.0
20260510075537 62 0.0 1.7 0.00 0.00 0.00 68 1013.1
20260510074517 62 0.0 1.7 0.00 0.00 0.00 70 1013.4
20260510073517 60 68 0.9 3.5 0.00 0.00 0.00 71 1013.3
20260510072517 60 45 1.7 3.5 0.00 0.00 0.00 70 1013.3
20260510071517 61 68 0.9 2.6 0.00 0.00 0.00 69 1013.4
20260510070517 60 0.0 1.7 0.00 0.00 0.00 70 1013.3
20260510065517 59 0.0 1.7 0.00 0.00 0.00 70 1013.4
20260510064517 58 0.0 1.7 0.00 0.00 0.00 71 1013.5
20260510063537 57 248 0.9 2.6 0.00 0.00 0.00 74 1013.7
20260510062517 56 0.0 5.2 0.00 0.00 0.00 76 1013.7
20260510061517 54 90 0.9 5.2 0.00 0.00 0.00 79 1013.7
20260510060517 52 248 0.9 2.6 0.00 0.00 0.00 83 1013.7
20260510055517 51 248 0.9 2.6 0.00 0.00 0.00 84 1013.7
20260510054537 50 180 0.9 3.5 0.00 0.00 0.00 86 1013.8
20260510053517 49 248 0.9 2.6 0.00 0.00 0.00 87 1013.9
20260510052517 48 0.0 1.7 0.00 0.00 0.00 88 1014.1
20260510051517 47 68 0.9 4.3 0.00 0.00 0.00 90 1013.9
20260510050537 47 0.0 1.7 0.00 0.00 0.00 90 1014.0
20260510045517 46 158 0.9 1.7 0.00 0.00 0.00 90 1014.2
20260510044537 45 158 0.9 1.7 0.00 0.00 0.00 89 1014.1
20260510043517 45 0.0 1.7 0.00 0.00 0.00 89 1014.1
20260510042517 45 0.0 1.7 0.00 0.00 0.00 89 1014.2
20260510041517 44 0.0 0.0 0.00 0.00 0.00 89 1014.2
20260510040517 44 0.0 0.9 0.00 0.00 0.00 89 1014.2
20260510035517 44 0.0 0.0 0.00 0.00 0.00 88 1014.3
20260510034517 45 0.0 0.0 0.00 0.00 0.00 88 1014.4
20260510033537 45 0.0 0.9 0.00 0.00 0.00 88 1014.5
20260510032540 45 0.0 1.7 0.00 0.00 0.00 87 1014.3
20260510031517 45 0.0 0.0 0.00 0.00 0.00 87 1014.4
20260510030537 46 0.0 0.9 0.00 0.00 0.00 87 1014.3
20260510025517 46 0.0 3.5 0.00 0.00 0.00 87 1014.4
20260510024517 46 0.0 2.6 0.00 0.00 0.00 86 1014.4
20260510023537 47 0.0 2.6 0.00 0.00 0.00 86 1014.6
20260510022557 47 0.0 1.7 0.00 0.00 0.00 85 1014.6
20260510021537 48 0.0 2.6 0.00 0.00 0.00 85 1014.6
20260510020517 48 0.0 3.5 0.00 0.00 0.00 85 1014.6
20260510015517 48 0 0.9 3.5 0.00 0.00 0.00 84 1014.6
20260510014517 48 68 0.9 3.5 0.00 0.00 0.00 84 1014.6
20260510013517 49 0.0 0.9 0.00 0.00 0.00 84 1014.9
20260510012517 49 248 0.9 4.3 0.00 0.00 0.00 84 1014.8
20260510011516 49 68 0.9 2.6 0.00 0.00 0.00 84 1014.7
20260510010516 49 68 0.9 3.5 0.00 0.00 0.00 83 1014.9
20260510005516 49 0.0 2.6 0.00 0.00 0.00 83 1015.1
20260510004517 49 0.0 0.9 0.00 0.00 0.00 82 1015.3
20260510003540 49 0.0 1.7 0.00 0.00 0.00 82 1015.3
20260510002517 50 0.0 1.7 0.00 0.00 0.00 82 1015.6
20260510001516 50 0.0 0.9 0.00 0.00 0.00 82 1015.5
20260510000517 50 0.0 3.5 0.00 0.00 0.00 82 1015.7
20260509235516 50 0.0 2.6 0.00 0.00 0.00 81 1015.9
20260509234537 51 68 0.9 3.5 0.00 0.00 0.00 81 1015.9
20260509233516 51 0.0 3.5 0.00 0.00 0.00 80 1016.3
20260509232516 51 0.0 1.7 0.00 0.00 0.00 79 1016.2
20260509231516 51 0.0 1.7 0.00 0.00 0.00 79 1016.2
20260509230516 52 0.0 0.9 0.00 0.00 0.00 78 1016.3
20260509225516 52 158 0.9 2.6 0.00 0.00 0.00 78 1016.2
20260509224516 52 158 0.9 4.3 0.00 0.00 0.00 78 1016.2
20260509223536 52 248 0.9 3.5 0.00 0.00 0.00 78 1016.3
20260509222516 53 0.0 1.7 0.00 0.00 0.00 78 1016.1
20260509221516 53 158 0.9 2.6 0.00 0.00 0.00 77 1016.3
20260509220516 53 158 0.9 1.7 0.00 0.00 0.00 77 1016.3
20260509215517 53 338 0.9 2.6 0.00 0.00 0.00 77 1016.2
20260509214517 53 0.0 3.5 0.00 0.00 0.00 77 1016.1
20260509213537 54 0.0 1.7 0.00 0.00 0.00 77 1016.4
20260509212537 54 158 0.9 3.5 0.00 0.00 0.00 77 1016.5
20260509211517 54 0.0 0.9 0.00 0.00 0.00 77 1016.6
20260509210517 54 0.0 3.5 0.00 0.00 0.00 77 1016.6
20260509205517 54 113 0.9 4.3 0.00 0.00 0.00 77 1016.5
20260509204517 54 0.0 2.6 0.00 0.00 0.00 78 1016.5
20260509203517 54 0.0 0.0 0.00 0.00 0.00 79 1016.7
20260509202517 54 0.0 0.0 0.00 0.00 0.00 79 1016.5
20260509201537 54 0.0 0.0 0.00 0.00 0.00 78 1016.4
20260509200537 54 0.0 0.0 0.00 0.00 0.00 77 1016.4
20260509195517 55 0.0 0.0 0.00 0.00 0.00 76 1016.5
20260509194517 55 0.0 0.0 0.00 0.00 0.00 75 1016.3
20260509193517 56 0.0 0.0 0.00 0.00 0.00 75 1016.3
20260509192517 56 0.0 0.0 0.00 0.00 0.00 74 1016.2
20260509191516 57 0.0 0.0 0.00 0.00 0.00 73 1016.1
20260509190537 57 0.0 0.0 0.00 0.00 0.00 72 1016.0
20260509185517 58 0.0 0.0 0.00 0.00 0.00 70 1015.9
20260509184516 59 0.0 0.0 0.00 0.00 0.00 69 1015.8
20260509183516 61 0.0 0.0 0.00 0.00 0.00 67 1015.8
20260509182516 62 0.0 0.0 0.00 0.00 0.00 66 1015.7
20260509181516 63 0.0 0.0 0.00 0.00 0.00 64 1015.8
20260509180537 63 0.0 0.0 0.00 0.00 0.00 61 1015.5
20260509175517 64 0.0 0.0 0.00 0.00 0.00 61 1015.5
20260509174517 65 0.0 0.9 0.00 0.00 0.00 59 1015.6
20260509173536 65 0.0 1.7 0.00 0.00 0.00 58 1015.5
20260509172537 66 0.0 1.7 0.00 0.00 0.00 57 1015.4
20260509171516 66 68 0.9 3.5 0.00 0.00 0.00 57 1015.5
20260509170516 67 0.0 1.7 0.00 0.00 0.00 57 1015.6
20260509165519 68 0.0 1.7 0.00 0.00 0.00 55 1015.8